Regional Weather Roundup
Issued by NWS Newport/Morehead, NC

Current Version | Previous Version | Graphics & Text | Print | Product List | Glossary Off
Versions: 1 2 3 4 5 6 7 8 9 10 11 12 13 14 15 16 17 18 19 20 21 22 23 24 25 26 27 28 29 30 31 32 33 34 35 36 37 38 39 40 41 42 43 44 45 46 47 48 49 50

000
ASUS42 KMHX 312210
RWRMHX
WEATHER ROUNDUP FOR EASTERN NORTH CAROLINA
NATIONAL WEATHER SERVICE NEWPORT/MOREHEAD CITY NC
600 PM EDT THU JUL 31 2014

NOTE: "FAIR" INDICATES FEW OR NO CLOUDS BELOW 12,000 FEET
WITH NO SIGNIFICANT WEATHER AND/OR OBSTRUCTIONS TO VISIBILITY

NCZ015>017-031-032-045>047-102-103-312300-
NORTH COAST

CITY           SKY/WX    TMP DP  RH WIND       PRES   REMARKS
EDENTON        CLOUDY    80  66  63 E5        30.12S
ELIZABETH CITY CLOUDY    79  63  57 SE8       30.12S
KITTY HAWK     CLOUDY    78  63  60 E8        30.12F
MANTEO         NOT AVBL

$$

NCZ045>047-081-094-103-104-312300-
CENTRAL COAST

CITY           SKY/WX    TMP DP  RH WIND       PRES   REMARKS
FRISCO         MOSUNNY   83  63  50 E9        30.13S
SWANQUARTER      N/A     81 N/A N/A E6        30.09S

$$

NCZ095-097-098-100-101-312300-
SOUTHERN COAST

CITY           SKY/WX    TMP DP  RH WIND       PRES   REMARKS
BEAUFORT       CLOUDY    81  69  67 E8        30.11F
CEDAR ISLAND     N/A     81 N/A N/A NE9G17    30.15S
JACKSONVILLE   CLOUDY    80  67  64 SE12      30.10F
NEWPORT        NOT AVBL
PINEY ISLAND   CLOUDY    82  66  58 E9        30.12R
WILMINGTON     CLOUDY    82  69  64 E9G17     30.09S


$$

NCZ011>013-027>030-043-044-078>080-089-090>093-098-312300-
COASTAL PLAIN

CITY           SKY/WX    TMP DP  RH WIND       PRES   REMARKS
AHOSKIE        CLOUDY    79  69  70 CALM      30.12F
CLINTON        CLOUDY    82  68  62 E3        30.10R
ELIZABETHTOWN  CLOUDY    80  67  63 E6        30.09S
GOLDSBORO      CLOUDY    83  70  64 E7        30.09R
GREENVILLE     CLOUDY    82  66  57 SE7       30.13S
HAVELOCK       CLOUDY    80  67  64 E6        30.12S
KENANSVILLE    CLOUDY    81  69  65 CALM      30.11R
KINSTON        CLOUDY    82  66  57 SE8       30.12R
NEW BERN       CLOUDY    82  63  52 E8        30.13R
RICHLANDS      CLOUDY    82  64  54 SE3       30.11R
ROANOKE RAPIDS NOT AVBL
ROCKY MOUNT    CLOUDY    81  67  62 E3        30.11S
WASHINGTON     CLOUDY    80  66  63 SE6       30.12S
WHITEVILLE     CLOUDY    78  69  73 CALM      30.08S

$$

AMZ130-135-150-152-154-156-158-170-250-252-270-ANZ085-086-088-633-658-670-312300-
MARINE OBSERVATIONS

STATION/POSITION TIME  TEMP    WIND        PRES    WAVE   SWELL
                       AIR SEA DIR/SP/G            HT/PER HT/PER
                 (UTC) (F)     (DEG/KT/KT) (MB)    (FT/S) (FT/S)
CHESAPEAKE LIGHT NOT AVBL
BUOY 44014       2200   77 80   80/  6/  8 1020.6    2/ 7   2/ 7
DUCK             2200   78 78  100/  9/ 10 1019.5
2E DUCK          2200                        N/A     2/ 7
OREGON INLET     2200   78 78   70/  8/ 11 1020.4
BUOY 44095       2200      78                N/A     3/ 7
20E OREGON INLET NOT AVBL
HATTERAS CG      2200   80 80   90/  9/ 12 1020.7
DIAMOND BUOY     2200          VRB 12/ 16  1019.8    3/ 6   3/ 6
CAPE LOOKOUT     2100   80      90/ 12/ 13 1019.7
BEAUFORT LAB     2200   80 82   90/  6/ 13 1019.0
30 SE NEW RIVER  2200   81 81   90/ 16/ 17 1019.3    4/ 7   2/ 8
5 SE WRIGHTSVILL 2100   77 81   90/ 16/ 19   N/A
BUOY 41002       2113   80 81  190/  6/  8 1018.5    3/ 6   3/ 6
BUOY 41004       2200   84 83  120/ 16/ 19 1015.4    5/ 5   2/14

$$


USA.gov is the U.S. government's official web portal to all federal, state and local government web resources and services.